Погода в Шаитике

Россия / Новосибирская область     54°38′52″N   77°35′05″E
темп.,
°C
ветер,
м/с
пор.,
м/с
влажн.,
%
обл.,
%
осадки,
мм/ч
давл.,
гПа
погр.,
м
9 марта, вт
вт901:00−12зюз8139060 0.0 1019277
04:00−15юз6109462 0.0 1020126
07:00−16ююз7119456 0.0 1021174
10:00−16ююз7129268 0.0 1022259
13:00−12ююз8128863 0.0 1022421
16:00−10ююз8128897 0.0 1020521
19:00−10ююз7129199 0.0 1019253
22:00−11ююз7129295 0.0 1018205
10 марта, ср
ср1001:00−12ююз7129097 0.0 1018196
04:00−14юз6119186 0.0 1017171
07:00−14ююз469293 0.0 101788
10:00−12ю4690100 0.0 1015149
13:00−10ююв4687100 0.0 1014245
16:00−7вюв71084100 0.0 1009346
19:00−6юв81295100 2.2 1003537
22:000ю4999100 3.6 998199
11 марта, чт
чт1101:00−2юз12189195 4.3 999531
04:00−10зюз101691100 0.1 1003403
07:00−13юз71195100 0.1 1007173
10:00−10юз8149299 0.1 1008425
13:00−8юз101484100 0.1 1011791
16:00−8юз8138267 0.0 1012623
19:00−10ююз6108734 0.0 1012137
22:00−9ююв6109595 0.1 1009191
12 марта, пт
пт1201:00−7зюз8139497 3.0 1008687
04:00−13юз9149193 0.1 1010365
07:00−16юз9149097 0.3 1012578
10:00−18юз91492100 0.0 1013515
13:00−17юз101389100 0.1 1015743
16:00−16зюз101386100 0.1 10171038
19:00−18зюз91487100 0.1 1019776
22:00−20зюз7139395 0.0 1022221
13 марта, сб
сб1301:00−23зюз699347 0.0 102588
04:00−25зюз55950 0.0 102740
07:00−25юз559922 0.0 102845
10:00−24юз579885 0.0 1029121
13:00−18юз7109278 0.0 1030341
16:00−15юз799074 0.0 1029407
19:00−17ююз589568 0.0 1029110
22:00−20юз569974 0.0 102980